OPS 4682 DEB, 15340

Orbit data source: Space-Track

OPS 4682 DEB, 15340 is space debris in LEO originally from a launch on Sat, 03 Apr 1965 UTC launched from the Air Force Western Test Range (AFWTR). Debris objects in space refer to the collection of defunct objects orbiting the Earth. Examples of debris include non-operational satellites, rocket bodies, and fragments generated from explosions, collisions, or faulty payload assembly.

Loading next visibility...
Identifier
15340, 1965-027R
Orbit
LEO
Country
Flag of USUS
Related business
Manufacturer
Unknown
Mission
Spacecraft
Bus & Motor
Unknown
Mass
Unknown
Launch date (UTC)
1965-04-03 (61 years ago)
Launch vehicle
Unknown
Launch site
Air Force Western Test Range (AFWTR)
Object type
Payload
Rocket body
Debris
Shape & HBR
Unknown shape, 0.1 m
Radar Cross Section
Medium (>0.1 m² and <1 m²)

Expand to show TLE details & history
Last TLE update: 1 week ago

TLE from 1 week ago
0 OPS 4682 DEB
1 15340U 65027R   26152.60884907  .00000502  00000-0  16578-2 0  9997
2 15340  90.2383   5.3869 0037457  66.7662 350.4765 12.99154505981504
Epoch: 2026-06-01T14:36Z
TLE epoch observation values (Epoch: 2026-06-01T14:36:44.559Z)
Latitude
57.26109°
Longitude
-104.26126°
Altitude
1,246.833 km
Speed
7.25 km/s
True Right ascension
00h 20m 04s
True Declination
57° 06' 52"
Sunlit
Object was in daylight at epoch
Visualization orbit readout
Latitude
Unknown
Longitude
Unknown
Altitude
Unknown
Speed
Unknown
Apparent Right ascension
Unknown
Apparent Declination
Unknown
Sunlit
N/A
Visualization observer readout
Local Sidereal Time
14:11:49
Azimuth
Unknown
Elevation
Unknown
Doppler factor
Unknown
Orbital elements
Apogee altitude
1,291.149 km
Perigee altitude
1,233.91 km
Semi-major axis
7,640.666 km
Eccentricity
0.00375
Inclination
90.2383°
RAAN
5.3869°
Arg. of periapsis
66.7662°
True anomaly
350.40515°
Mean anomaly
350.4765°
Eccentric anomaly
350.44086°
Mean motion
3.24972 °/min
Orbital period
110.78 mins
BSTAR
0.0016578
Loading maneuver chart data...
Computing Atmospheric mass density...
Loading historical data...
Loading historical data...
Loading historical data...
Loading historical data...
Loading historical data...
Loading historical data...
Loading historical data...

Documentation

Showing up to 5 results
|